DO6HN-6 Weather Reports


Display with metric or nautical units.
time (UTC)temp
F
wind
direction
speed
MPH
gust
MPH
rain 1hr
in
rain 24hr
in
rain mn
in
humidity
%
barometer
mb
20260507051612 54 0.0 0.0 0.00 0.00 0.00 9 989.1
20260507050353 54 0.0 0.0 0.00 0.00 0.00 9 989.0
20260507044928 53 0.0 0.0 0.00 0.00 0.00 9 988.8
20260507043722 53 0.0 0.0 0.00 0.00 0.00 9 988.6
20260507042308 54 0.0 0.0 0.00 0.00 0.00 9 988.4
20260507040958 54 0.0 0.0 0.00 0.00 0.00 9 988.2
20260507035538 54 0.0 0.0 0.00 0.00 0.00 9 988.1
20260507034228 55 0.0 0.0 0.00 0.00 0.00 9 988.0
20260507032838 55 0.0 0.0 0.00 0.00 0.00 8 987.8
20260507031558 55 0.0 0.0 0.00 0.00 0.00 8 987.7
20260507030208 56 0.0 0.0 0.00 0.00 0.00 8 987.6
20260507024843 55 0.0 0.0 0.00 0.00 0.00 9 987.5
20260507023557 55 0.0 0.0 0.00 0.00 0.00 9 987.4
20260507022323 55 0.0 0.0 0.00 0.00 0.00 9 987.4
20260507021013 55 0.0 0.0 0.00 0.00 0.00 9 987.2
20260507015602 54 0.0 0.0 0.00 0.00 0.00 9 987.1
20260507014248 55 0.0 0.0 0.00 0.00 0.00 8 987.0
20260507013048 55 0.0 0.0 0.00 0.00 0.00 9 986.9
20260507011604 55 0.0 0.0 0.00 0.00 0.00 9 986.9
20260507010153 55 0.0 0.0 0.00 0.00 0.00 9 986.9
20260507004753 55 0.0 0.0 0.00 0.00 0.00 8 986.9
20260507003509 55 0.0 0.0 0.00 0.00 0.00 9 986.9
20260507002218 55 0.0 0.0 0.00 0.00 0.00 9 986.9
20260507001003 56 0.0 0.0 0.00 0.00 0.00 9 986.9
20260506235518 57 0.0 0.0 0.00 0.00 0.00 8 987.0
20260506234222 57 0.0 0.0 0.00 0.00 0.00 8 987.0
20260506232913 57 0.0 0.0 0.00 0.00 0.00 8 986.9
20260506231538 57 0.0 0.0 0.00 0.00 0.00 8 986.9
20260506230158 57 0.0 0.0 0.00 0.00 0.00 9 986.9
20260506224758 56 0.0 0.0 0.00 0.00 0.00 9 986.8
20260506223348 57 0.0 0.0 0.00 0.00 0.00 9 986.8
20260506222040 58 0.0 0.0 0.00 0.00 0.00 8 986.6
20260506220822 58 0.0 0.0 0.00 0.00 0.00 8 986.5
20260506215440 59 0.0 0.0 0.00 0.00 0.00 8 986.3
20260506214023 60 0.0 0.0 0.00 0.00 0.00 8 986.1
20260506212733 59 0.0 0.0 0.00 0.00 0.00 8 986.0
20260506211318 59 0.0 0.0 0.00 0.00 0.00 8 985.9
20260506210118 60 0.0 0.0 0.00 0.00 0.00 8 985.8
20260506204653 60 0.0 0.0 0.00 0.00 0.00 8 985.7
20260506203208 60 0.0 0.0 0.00 0.00 0.00 8 985.7
20260506201748 61 0.0 0.0 0.00 0.00 0.00 8 985.6
20260506200338 61 0.0 0.0 0.00 0.00 0.00 8 985.5
20260506194918 60 0.0 0.0 0.00 0.00 0.00 8 985.3
20260506193613 60 0.0 0.0 0.00 0.00 0.00 8 985.2
20260506192158 61 0.0 0.0 0.00 0.00 0.00 8 985.1
20260506190821 62 0.0 0.0 0.00 0.00 0.00 8 984.8
20260506185353 61 0.0 0.0 0.00 0.00 0.00 8 984.7
20260506183938 61 0.0 0.0 0.00 0.00 0.00 8 984.5
20260506182442 61 0.0 0.0 0.00 0.00 0.00 8 984.4
20260506181223 61 0.0 0.0 0.00 0.00 0.00 8 984.2
20260506175958 61 0.0 0.0 0.00 0.00 0.00 8 983.9
20260506174753 61 0.0 0.0 0.00 0.00 0.00 8 983.8
20260506173318 62 0.0 0.0 0.00 0.00 0.00 8 983.8
20260506172118 60 0.0 0.0 0.00 0.00 0.00 9 983.8
20260506170913 60 0.0 0.0 0.00 0.00 0.00 9 983.8
20260506165438 59 0.0 0.0 0.00 0.00 0.00 9 983.8
20260506164102 58 0.0 0.0 0.00 0.00 0.00 9 983.9
20260506162738 59 0.0 0.0 0.00 0.00 0.00 9 983.9
20260506161253 59 0.0 0.0 0.00 0.00 0.00 9 983.9
20260506160048 60 0.0 0.0 0.00 0.00 0.00 9 983.9
20260506154608 62 0.0 0.0 0.00 0.00 0.00 8 983.8
20260506153128 59 0.0 0.0 0.00 0.00 0.00 9 983.8
20260506151658 61 0.0 0.0 0.00 0.00 0.00 9 983.7
20260506150458 60 0.0 0.0 0.00 0.00 0.00 9 983.8
20260506145213 60 0.0 0.0 0.00 0.00 0.00 9 983.6
20260506144008 60 0.0 0.0 0.00 0.00 0.00 9 983.5
20260506142533 64 0.0 0.0 0.00 0.00 0.00 7 983.3
20260506141038 68 0.0 0.0 0.00 0.00 0.00 5 982.8
20260506135543 70 0.0 0.0 0.00 0.00 0.00 5 982.7
20260506134114 70 0.0 0.0 0.00 0.00 0.00 4 982.7
20260506132808 71 0.0 0.0 0.00 0.00 0.00 4 982.5
20260506131318 72 0.0 0.0 0.00 0.00 0.00 4 982.5
20260506125828 72 0.0 0.0 0.00 0.00 0.00 4 982.4
20260506124533 72 0.0 0.0 0.00 0.00 0.00 4 982.4
20260506123118 72 0.0 0.0 0.00 0.00 0.00 4 982.5
20260506121713 74 0.0 0.0 0.00 0.00 0.00 4 982.5
20260506120358 73 0.0 0.0 0.00 0.00 0.00 4 982.5
20260506114958 73 0.0 0.0 0.00 0.00 0.00 4 982.4
20260506113458 74 0.0 0.0 0.00 0.00 0.00 4 982.5
20260506112128 73 0.0 0.0 0.00 0.00 0.00 4 982.8
20260506110833 73 0.0 0.0 0.00 0.00 0.00 4 982.9
20260506105518 72 0.0 0.0 0.00 0.00 0.00 4 983.0
20260506104118 70 0.0 0.0 0.00 0.00 0.00 4 983.0
20260506102638 70 0.0 0.0 0.00 0.00 0.00 4 983.2
20260506101358 71 0.0 0.0 0.00 0.00 0.00 4 983.3
20260506095958 69 0.0 0.0 0.00 0.00 0.00 5 983.2
20260506094718 70 0.0 0.0 0.00 0.00 0.00 4 983.1
20260506093413 69 0.0 0.0 0.00 0.00 0.00 5 983.2
20260506092028 67 0.0 0.0 0.00 0.00 0.00 5 983.1
20260506090742 68 0.0 0.0 0.00 0.00 0.00 5 983.1
20260506085343 65 0.0 0.0 0.00 0.00 0.00 5 983.3
20260506084119 65 0.0 0.0 0.00 0.00 0.00 5 983.4
20260506082807 67 0.0 0.0 0.00 0.00 0.00 5 983.4
20260506081433 66 0.0 0.0 0.00 0.00 0.00 5 983.3
20260506073248 64 0.0 0.0 0.00 0.00 0.00 5 983.0
20260506071838 65 0.0 0.0 0.00 0.00 0.00 6 983.1
20260506070602 64 0.0 0.0 0.00 0.00 0.00 6 983.1
20260506061318 64 0.0 0.0 0.00 0.00 0.00 6 983.3